Weather History for Jonesboro, AR

Change the Weather History Date:

Tuesday, October 11, 2011

  Actual Average Record
Temperature  
Mean Temperature 70 °F 63 °F  
Max Temperature 83 °F 75 °F 95 °F (1963)
Min Temperature 57 °F 51 °F 28 °F (1906)
Degree Days  
Heating Degree Days 0 4  
Month to date heating degree days 21 36  
Since 1 July heating degree days 30 54  
Cooling Degree Days 5 2  
Month to date cooling degree days 27 30  
Year to date cooling degree days 2199 1801  
Growing Degree Days 20 (Base 50)    
Moisture  
Dew Point 57 °F    
Average Humidity 65    
Maximum Humidity 90    
Minimum Humidity 40    
Precipitation  
Precipitation 0.00 in 0.12 in 1.57 in (2004)
Month to date precipitation 0.00 1.50  
Year to date precipitation 37.27 35.67  
Snow  
Snow 0.00 in - 0.00 in (2002)
Month to date snowfall 0.0  
Since 1 July snowfall 0.0  
Since 1 September snowfall 0.0  
Snow Depth -    
Sea Level Pressure  
Sea Level Pressure 29.92 in    
Wind  
Wind Speed 1 mph (ENE)    
Max Wind Speed 8 mph    
Max Gust Speed 24 mph    
Visibility 10 miles    
Events      
T = Trace of Precipitation, MM = Missing Value Source: NWS Daily Summary

Daily Weather History Graph

Daily Weather History Graph

Search for Another Location

Airport:

Trip Planner

Search our weather history database for the weather conditions in past years. The results will help you decide how hot, cold, wet, or windy it might be!

Date:

Astronomy

Oct. 11, 2011 Rise Set
Actual Time 7:05 AM CDT 6:32 PM CDT
Civil Twilight 6:39 AM CDT 6:58 PM CDT
Nautical Twilight 6:10 AM CDT 7:27 PM CDT
Astronomical Twilight 5:40 AM CDT 7:57 PM CDT
Moon 6:06 PM CDT (10/11) 6:42 AM CDT (10/11)
Length of Visible Light 12h 18m
Length of Day
11h 26m
Full, 100% of the Moon is Illuminated
Oct 11
Full
Oct 11
Full
Oct 19
Last Quarter
Oct 26
New
Nov 2
First Quarter

Hourly Weather History & Observations

Time (CDT) Temp. Heat Index Dew Point Humidity Pressure Visibility Wind Dir Wind Speed Gust Speed Precip Events Conditions
12:53 AM 64.9 °F - 59.0 °F 81% 29.97 in 10.0 mi ENE 4.6 mph - N/A   Clear
1:53 AM 63.0 °F - 57.9 °F 84% 29.97 in 10.0 mi NE 3.5 mph - N/A   Clear
2:53 AM 61.0 °F - 57.0 °F 87% 29.97 in 10.0 mi Calm Calm - N/A   Clear
3:53 AM 60.8 °F - 57.2 °F 88% 29.97 in 10.0 mi Calm Calm - N/A   Clear
4:53 AM 60.1 °F - 57.0 °F 90% 29.97 in 10.0 mi Calm Calm - N/A   Clear
5:53 AM 59.0 °F - 55.9 °F 90% 29.98 in 10.0 mi Calm Calm - N/A   Clear
6:53 AM 59.0 °F - 55.0 °F 87% 29.98 in 10.0 mi Calm Calm - N/A   Clear
7:53 AM 59.0 °F - 55.9 °F 90% 29.99 in 10.0 mi Calm Calm - N/A   Partly Cloudy
8:53 AM 66.2 °F - 60.8 °F 83% 29.99 in 10.0 mi East 3.5 mph - N/A   Clear
9:53 AM 73.0 °F - 60.1 °F 64% 29.98 in 10.0 mi East 4.6 mph - N/A   Clear
10:53 AM 75.9 °F - 59.0 °F 56% 29.97 in 10.0 mi Calm Calm - N/A   Clear
11:53 AM 78.1 °F - 57.9 °F 50% 29.96 in 10.0 mi Calm Calm - N/A   Clear
12:53 PM 81.0 °F 81.0 °F 57.0 °F 44% 29.93 in 10.0 mi Calm Calm - N/A   Mostly Cloudy
1:53 PM 81.0 °F 80.8 °F 55.9 °F 42% 29.90 in 10.0 mi Calm Calm - N/A   Scattered Clouds
2:53 PM 80.6 °F 80.5 °F 55.4 °F 42% 29.89 in 10.0 mi Calm Calm - N/A   Scattered Clouds
3:53 PM 80.1 °F 80.4 °F 57.0 °F 45% 29.86 in 10.0 mi NNW 5.8 mph - N/A   Clear
4:53 PM 82.0 °F 81.6 °F 55.9 °F 41% 29.85 in 10.0 mi Calm Calm - N/A   Clear
5:53 PM 79.0 °F - 55.9 °F 45% 29.85 in 10.0 mi SE 5.8 mph - N/A   Clear
6:53 PM 70.0 °F - 57.0 °F 63% 29.85 in 10.0 mi Calm Calm - N/A   Clear
7:53 PM 66.0 °F - 57.0 °F 73% 29.85 in 10.0 mi Calm Calm - N/A   Clear
8:53 PM 64.9 °F - 57.0 °F 75% 29.86 in 10.0 mi NE 4.6 mph - N/A   Clear
9:53 PM 64.9 °F - 55.9 °F 73% 29.87 in 10.0 mi Calm Calm - N/A   Clear
10:53 PM 62.1 °F - 55.9 °F 80% 29.87 in 10.0 mi Calm Calm - N/A   Clear
11:53 PM 62.1 °F - 55.9 °F 80% 29.87 in 10.0 mi Calm Calm - N/A   Clear